Time,TemperatureF,DewpointF,PressureIn,WindDirection,WindDirectionDegrees,WindSpeedMPH,WindSpeedGustMPH,Humidity,HourlyPrecipIn,Conditions,Clouds,dailyrainin,SoftwareType,DateUTC
2013-05-31 00:02:00,61.0,55.0,29.67,SSW,197,8.0,12.0,81,0.00,,,0.55,,2013-05-31 04:02:00,
2013-05-31 00:12:00,61.0,55.0,29.67,SSW,197,8.0,12.0,81,0.00,,,0.55,,2013-05-31 04:12:00,
2013-05-31 00:22:00,61.0,55.0,29.68,SW,216,7.0,10.0,80,0.00,,,0.55,,2013-05-31 04:22:00,
2013-05-31 00:32:00,61.0,55.0,29.70,SW,232,6.0,12.0,80,0.00,,,0.55,,2013-05-31 04:32:00,
2013-05-31 00:42:00,61.0,55.0,29.70,SW,232,6.0,12.0,80,0.00,,,0.55,,2013-05-31 04:42:00,
2013-05-31 00:53:00,60.0,54.0,29.70,SSW,213,8.0,10.0,82,0.00,,,0.55,,2013-05-31 04:53:00,
2013-05-31 01:02:00,61.0,55.0,29.70,SW,232,6.0,9.0,81,0.00,,,0.55,,2013-05-31 05:02:00,
2013-05-31 01:12:00,61.0,55.0,29.70,SW,232,6.0,9.0,81,0.00,,,0.55,,2013-05-31 05:12:00,
2013-05-31 01:22:00,60.0,55.0,29.70,WSW,247,0.0,5.0,84,0.00,,,0.47,,2013-05-31 05:22:00,
2013-05-31 01:32:00,59.0,55.0,29.71,WSW,237,4.0,5.0,87,0.00,,,0.47,,2013-05-31 05:32:00,
2013-05-31 01:42:00,59.0,55.0,29.71,WSW,237,4.0,5.0,87,0.00,,,0.47,,2013-05-31 05:42:00,
2013-05-31 01:52:00,59.0,55.0,29.71,SW,234,6.0,7.0,87,0.00,,,0.47,,2013-05-31 05:52:00,
2013-05-31 02:02:00,60.0,56.0,29.72,SW,218,7.0,8.0,87,0.00,,,0.47,,2013-05-31 06:02:00,
2013-05-31 02:12:00,60.0,56.0,29.72,SW,218,7.0,8.0,87,0.00,,,0.47,,2013-05-31 06:12:00,
2013-05-31 02:21:00,63.0,57.0,29.71,SSW,204,11.0,15.0,81,0.00,,,0.47,,2013-05-31 06:21:00,
2013-05-31 02:31:00,63.0,57.0,29.71,SSW,200,7.0,14.0,82,0.00,,,0.47,,2013-05-31 06:31:00,
2013-05-31 02:41:00,62.0,57.0,29.70,SW,229,0.0,4.0,84,0.00,,,0.47,,2013-05-31 06:41:00,
2013-05-31 02:52:00,62.0,57.0,29.70,SW,229,0.0,4.0,84,0.00,,,0.47,,2013-05-31 06:52:00,
2013-05-31 03:02:00,60.0,56.0,29.70,SW,227,5.0,6.0,87,0.00,,,0.47,,2013-05-31 07:02:00,
2013-05-31 03:11:00,60.0,56.0,29.70,SW,227,5.0,6.0,87,0.00,,,0.47,,2013-05-31 07:11:00,
2013-05-31 03:21:00,60.0,57.0,29.68,SW,234,2.0,5.0,89,0.00,,,0.47,,2013-05-31 07:21:00,
2013-05-31 03:32:00,58.0,55.0,29.67,North,350,1.0,5.0,91,0.00,,,0.47,,2013-05-31 07:32:00,
2013-05-31 03:41:00,58.0,55.0,29.67,North,350,1.0,5.0,91,0.00,,,0.47,,2013-05-31 07:41:00,
2013-05-31 03:52:00,59.0,56.0,29.67,West,265,2.0,4.0,91,0.00,,,0.47,,2013-05-31 07:52:00,
2013-05-31 04:02:00,57.0,54.0,29.68,West,265,2.0,2.0,91,0.00,,,0.47,,2013-05-31 08:02:00,
2013-05-31 04:11:00,57.0,54.0,29.68,West,265,2.0,2.0,91,0.00,,,0.47,,2013-05-31 08:11:00,
2013-05-31 04:22:00,58.0,57.0,29.70,SSW,200,7.0,9.0,95,0.00,,,0.47,,2013-05-31 08:22:00,
2013-05-31 04:31:00,66.0,62.0,29.69,South,188,7.0,13.0,87,0.00,,,0.47,,2013-05-31 08:31:00,
2013-05-31 04:42:00,66.0,62.0,29.69,South,188,7.0,13.0,87,0.00,,,0.47,,2013-05-31 08:42:00,
2013-05-31 04:52:00,65.0,60.0,29.67,WSW,240,2.0,5.0,83,0.00,,,0.47,,2013-05-31 08:52:00,
2013-05-31 05:01:00,64.0,59.0,29.67,SW,224,3.0,6.0,84,0.00,,,0.47,,2013-05-31 09:01:00,
2013-05-31 05:11:00,64.0,59.0,29.67,SW,224,3.0,6.0,84,0.00,,,0.47,,2013-05-31 09:11:00,
2013-05-31 05:21:00,64.0,60.0,29.66,South,175,3.0,5.0,88,0.00,,,0.42,,2013-05-31 09:21:00,
2013-05-31 05:32:00,63.0,60.0,29.65,South,186,0.0,1.0,89,0.00,,,0.42,,2013-05-31 09:32:00,
2013-05-31 05:43:00,63.0,60.0,29.65,South,186,0.0,1.0,89,0.00,,,0.42,,2013-05-31 09:43:00,
2013-05-31 05:53:00,61.0,58.0,29.64,South,186,0.0,2.0,91,0.00,,,0.42,,2013-05-31 09:53:00,
2013-05-31 06:02:00,60.0,58.0,29.65,ESE,119,2.0,4.0,92,0.00,,,0.42,,2013-05-31 10:02:00,
2013-05-31 06:12:00,60.0,58.0,29.66,SSE,156,5.0,7.0,94,0.00,,,0.40,,2013-05-31 10:12:00,
2013-05-31 06:22:00,60.0,58.0,29.66,SSE,156,5.0,7.0,94,0.00,,,0.40,,2013-05-31 10:22:00,
2013-05-31 06:33:00,61.0,60.0,29.66,SSE,155,3.0,6.0,95,0.00,,,0.40,,2013-05-31 10:33:00,
2013-05-31 06:42:00,61.0,60.0,29.66,SSE,155,3.0,6.0,95,0.00,,,0.40,,2013-05-31 10:42:00,
2013-05-31 06:52:00,61.0,60.0,29.65,SSE,150,1.0,3.0,95,0.00,,,0.40,,2013-05-31 10:52:00,
2013-05-31 07:02:00,60.0,59.0,29.65,SSE,157,4.0,6.0,95,0.00,,,0.40,,2013-05-31 11:02:00,
2013-05-31 07:11:00,60.0,59.0,29.65,SSE,157,4.0,6.0,95,0.00,,,0.40,,2013-05-31 11:11:00,
2013-05-31 07:22:00,60.0,58.0,29.68,NNW,331,3.0,8.0,94,0.00,,,0.27,,2013-05-31 11:22:00,
2013-05-31 07:32:00,62.0,61.0,29.70,NNW,344,6.0,10.0,96,0.00,,,0.27,,2013-05-31 11:32:00,
2013-05-31 07:42:00,62.0,61.0,29.70,NNW,344,6.0,10.0,96,0.00,,,0.27,,2013-05-31 11:42:00,
2013-05-31 07:52:00,63.0,62.0,29.70,WNW,296,3.0,6.0,95,0.00,,,0.27,,2013-05-31 11:52:00,
2013-05-31 08:01:00,62.0,59.0,29.71,North,5,3.0,8.0,90,0.00,,,0.27,,2013-05-31 12:01:00,
2013-05-31 08:11:00,62.0,59.0,29.71,North,5,3.0,8.0,90,0.00,,,0.27,,2013-05-31 12:11:00,
2013-05-31 08:21:00,62.0,59.0,29.71,North,5,0.0,2.0,89,0.00,,,0.18,,2013-05-31 12:21:00,
2013-05-31 08:31:00,63.0,59.0,29.72,North,5,0.0,1.0,88,0.00,,,0.18,,2013-05-31 12:31:00,
2013-05-31 08:41:00,63.0,59.0,29.72,North,5,0.0,1.0,88,0.00,,,0.18,,2013-05-31 12:41:00,
2013-05-31 08:52:00,63.0,59.0,29.72,North,5,0.0,0.0,87,0.00,,,0.18,,2013-05-31 12:52:00,
2013-05-31 09:01:00,64.0,59.0,29.72,North,5,0.0,2.0,85,0.00,,,0.18,,2013-05-31 13:01:00,
2013-05-31 09:11:00,64.0,59.0,29.72,North,5,0.0,2.0,85,0.00,,,0.18,,2013-05-31 13:11:00,
2013-05-31 09:21:00,64.0,59.0,29.73,North,5,0.0,2.0,84,0.00,,,0.17,,2013-05-31 13:21:00,
2013-05-31 09:32:00,66.0,59.0,29.74,NE,43,0.0,0.0,78,0.00,,,0.17,,2013-05-31 13:32:00,
2013-05-31 09:42:00,66.0,59.0,29.74,NE,43,0.0,0.0,78,0.00,,,0.17,,2013-05-31 13:42:00,
2013-05-31 09:52:00,66.0,57.0,29.74,NNE,17,0.0,2.0,73,0.00,,,0.17,,2013-05-31 13:52:00,
2013-05-31 10:02:00,67.0,57.0,29.75,NNW,332,2.0,3.0,70,0.00,,,0.17,,2013-05-31 14:02:00,
2013-05-31 10:11:00,67.0,57.0,29.75,NNW,332,2.0,3.0,70,0.00,,,0.17,,2013-05-31 14:11:00,
2013-05-31 10:21:00,68.0,56.0,29.74,NNW,337,3.0,6.0,65,0.00,,,0.16,,2013-05-31 14:21:00,
2013-05-31 10:32:00,68.0,56.0,29.74,NW,314,1.0,6.0,65,0.00,,,0.16,,2013-05-31 14:32:00,
2013-05-31 10:41:00,68.0,56.0,29.74,NW,314,1.0,6.0,65,0.00,,,0.16,,2013-05-31 14:41:00,
2013-05-31 10:52:00,68.0,54.0,29.75,NW,315,5.0,8.0,61,0.00,,,0.16,,2013-05-31 14:52:00,
2013-05-31 11:01:00,69.0,55.0,29.75,NW,321,5.0,7.0,61,0.00,,,0.16,,2013-05-31 15:01:00,
2013-05-31 11:11:00,69.0,55.0,29.75,NW,321,5.0,7.0,61,0.00,,,0.16,,2013-05-31 15:11:00,
2013-05-31 11:21:00,69.0,55.0,29.75,WNW,298,6.0,9.0,61,0.00,,,0.15,,2013-05-31 15:21:00,
2013-05-31 11:33:00,70.0,56.0,29.75,North,349,1.0,7.0,61,0.00,,,0.15,,2013-05-31 15:33:00,
2013-05-31 11:43:00,70.0,56.0,29.75,North,349,1.0,7.0,61,0.00,,,0.15,,2013-05-31 15:43:00,
2013-05-31 11:53:00,70.0,55.0,29.75,North,350,2.0,8.0,59,0.00,,,0.15,,2013-05-31 15:53:00,
2013-05-31 12:03:00,72.0,56.0,29.76,East,86,0.0,4.0,57,0.00,,,0.15,,2013-05-31 16:03:00,
2013-05-31 12:12:00,72.0,55.0,29.76,West,263,2.0,4.0,55,0.00,,,0.15,,2013-05-31 16:12:00,
2013-05-31 12:22:00,72.0,55.0,29.76,West,263,2.0,4.0,55,0.00,,,0.15,,2013-05-31 16:22:00,
2013-05-31 12:33:00,73.0,55.0,29.76,West,273,3.0,6.0,53,0.00,,,0.15,,2013-05-31 16:33:00,
2013-05-31 12:42:00,73.0,55.0,29.76,West,273,3.0,6.0,53,0.00,,,0.15,,2013-05-31 16:42:00,
2013-05-31 12:52:00,74.0,57.0,29.76,WSW,253,1.0,8.0,56,0.00,,,0.15,,2013-05-31 16:52:00,
2013-05-31 13:02:00,74.0,57.0,29.76,WNW,294,2.0,7.0,55,0.00,,,0.15,,2013-05-31 17:02:00,
2013-05-31 13:12:00,74.0,57.0,29.76,WNW,294,2.0,7.0,55,0.00,,,0.15,,2013-05-31 17:12:00,
2013-05-31 13:22:00,75.0,56.0,29.76,West,277,6.0,9.0,52,0.00,,,0.15,,2013-05-31 17:22:00,
2013-05-31 13:32:00,75.0,55.0,29.75,West,281,3.0,11.0,50,0.00,,,0.15,,2013-05-31 17:32:00,
2013-05-31 13:42:00,75.0,55.0,29.75,West,281,3.0,11.0,50,0.00,,,0.15,,2013-05-31 17:42:00,
2013-05-31 13:52:00,76.0,55.0,29.75,WNW,302,6.0,11.0,48,0.00,,,0.15,,2013-05-31 17:52:00,
2013-05-31 14:01:00,77.0,56.0,29.75,WSW,255,5.0,16.0,49,0.00,,,0.15,,2013-05-31 18:01:00,
2013-05-31 14:11:00,77.0,56.0,29.75,WSW,255,5.0,16.0,49,0.00,,,0.15,,2013-05-31 18:11:00,
2013-05-31 14:22:00,76.0,55.0,29.75,NW,306,6.0,12.0,48,0.00,,,0.15,,2013-05-31 18:22:00,
2013-05-31 14:31:00,77.0,55.0,29.76,WSW,256,7.0,12.0,47,0.00,,,0.15,,2013-05-31 18:31:00,
2013-05-31 14:42:00,77.0,55.0,29.76,WSW,256,7.0,12.0,47,0.00,,,0.15,,2013-05-31 18:42:00,
2013-05-31 14:52:00,78.0,54.0,29.76,West,265,10.0,15.0,44,0.00,,,0.15,,2013-05-31 18:52:00,
2013-05-31 15:02:00,77.0,52.0,29.75,WNW,302,4.0,12.0,42,0.00,,,0.15,,2013-05-31 19:02:00,
2013-05-31 15:11:00,77.0,52.0,29.75,WNW,302,4.0,12.0,42,0.00,,,0.15,,2013-05-31 19:11:00,
2013-05-31 15:22:00,76.0,52.0,29.74,WSW,238,8.0,12.0,43,0.00,,,0.15,,2013-05-31 19:22:00,
2013-05-31 15:32:00,74.0,53.0,29.76,West,262,9.0,12.0,48,0.00,,,0.15,,2013-05-31 19:32:00,
2013-05-31 15:42:00,76.0,54.0,29.75,West,269,5.0,13.0,47,0.00,,,0.15,,2013-05-31 19:42:00,
2013-05-31 15:52:00,76.0,54.0,29.75,West,269,5.0,13.0,47,0.00,,,0.15,,2013-05-31 19:52:00,
2013-05-31 16:01:00,76.0,50.0,29.74,WSW,240,9.0,12.0,40,0.00,,,0.15,,2013-05-31 20:01:00,
2013-05-31 16:11:00,76.0,50.0,29.74,WSW,240,9.0,12.0,40,0.00,,,0.15,,2013-05-31 20:11:00,
2013-05-31 16:22:00,77.0,51.0,29.74,WSW,247,8.0,11.0,40,0.00,,,0.15,,2013-05-31 20:22:00,
2013-05-31 16:31:00,79.0,55.0,29.74,SW,229,10.0,15.0,43,0.00,,,0.15,,2013-05-31 20:31:00,
2013-05-31 16:41:00,79.0,55.0,29.74,SW,229,10.0,15.0,43,0.00,,,0.15,,2013-05-31 20:41:00,
2013-05-31 16:52:00,80.0,51.0,29.74,SW,223,12.0,15.0,37,0.00,,,0.15,,2013-05-31 20:52:00,
2013-05-31 17:01:00,77.0,53.0,29.73,WSW,246,8.0,14.0,44,0.00,,,0.15,,2013-05-31 21:01:00,
2013-05-31 17:11:00,77.0,53.0,29.73,WSW,246,8.0,14.0,44,0.00,,,0.15,,2013-05-31 21:11:00,
2013-05-31 17:22:00,77.0,52.0,29.73,WSW,243,10.0,13.0,42,0.00,,,0.15,,2013-05-31 21:22:00,
2013-05-31 17:32:00,77.0,53.0,29.73,WSW,238,10.0,14.0,43,0.00,,,0.15,,2013-05-31 21:32:00,
2013-05-31 17:42:00,78.0,54.0,29.73,SSW,208,9.0,12.0,44,0.00,,,0.15,,2013-05-31 21:42:00,
2013-05-31 17:54:00,78.0,54.0,29.73,SSW,208,9.0,12.0,44,0.00,,,0.15,,2013-05-31 21:54:00,
2013-05-31 18:02:00,80.0,53.0,29.72,SW,229,11.0,14.0,40,0.00,,,0.15,,2013-05-31 22:02:00,
2013-05-31 18:12:00,80.0,53.0,29.72,SW,229,11.0,14.0,40,0.00,,,0.15,,2013-05-31 22:12:00,
2013-05-31 18:22:00,80.0,54.0,29.71,SSW,204,10.0,14.0,41,0.00,,,0.15,,2013-05-31 22:22:00,
2013-05-31 18:33:00,79.0,54.0,29.71,SSW,210,10.0,16.0,42,0.00,,,0.15,,2013-05-31 22:33:00,
2013-05-31 18:42:00,78.0,54.0,29.71,SW,231,10.0,14.0,44,0.00,,,0.15,,2013-05-31 22:42:00,
2013-05-31 18:53:00,78.0,54.0,29.71,SW,231,10.0,14.0,44,0.00,,,0.15,,2013-05-31 22:53:00,
2013-05-31 19:02:00,79.0,54.0,29.72,WSW,238,9.0,18.0,42,0.00,,,0.15,,2013-05-31 23:02:00,
2013-05-31 19:12:00,79.0,54.0,29.72,WSW,238,9.0,18.0,42,0.00,,,0.15,,2013-05-31 23:12:00,
2013-05-31 19:21:00,80.0,55.0,29.72,WSW,248,12.0,16.0,42,0.00,,,0.15,,2013-05-31 23:21:00,
2013-05-31 19:32:00,80.0,52.0,29.71,West,261,12.0,18.0,38,0.00,,,0.15,,2013-05-31 23:32:00,
2013-05-31 19:42:00,79.0,52.0,29.71,West,263,12.0,16.0,39,0.00,,,0.15,,2013-05-31 23:42:00,
2013-05-31 19:52:00,79.0,52.0,29.71,West,263,12.0,16.0,39,0.00,,,0.15,,2013-05-31 23:52:00,
2013-05-31 20:01:00,78.0,54.0,29.70,WSW,240,8.0,11.0,43,0.00,,,0.15,,2013-06-01 00:01:00,
2013-05-31 20:11:00,79.0,55.0,29.70,SW,233,7.0,9.0,43,0.00,,,0.01,,2013-06-01 00:11:00,
2013-05-31 20:22:00,79.0,55.0,29.70,SW,233,7.0,9.0,43,0.00,,,0.01,,2013-06-01 00:22:00,
2013-05-31 20:32:00,78.0,56.0,29.71,West,279,6.0,8.0,46,0.00,,,0.01,,2013-06-01 00:32:00,
2013-05-31 20:42:00,78.0,58.0,29.70,WSW,253,5.0,7.0,50,0.00,,,0.01,,2013-06-01 00:42:00,
2013-05-31 20:52:00,78.0,58.0,29.70,WSW,253,5.0,7.0,50,0.00,,,0.01,,2013-06-01 00:52:00,
2013-05-31 21:01:00,77.0,59.0,29.70,WSW,256,4.0,7.0,53,0.00,,,0.01,,2013-06-01 01:01:00,
2013-05-31 21:11:00,74.0,59.0,29.69,West,273,2.0,3.0,60,0.00,,,0.00,,2013-06-01 01:11:00,
2013-05-31 21:21:00,74.0,59.0,29.69,West,273,2.0,3.0,60,0.00,,,0.00,,2013-06-01 01:21:00,
2013-05-31 21:32:00,74.0,61.0,29.68,West,273,1.0,1.0,63,0.00,,,0.00,,2013-06-01 01:32:00,
2013-05-31 21:42:00,72.0,61.0,29.68,West,273,0.0,1.0,68,0.00,,,0.00,,2013-06-01 01:42:00,
2013-05-31 21:52:00,72.0,61.0,29.68,West,273,0.0,1.0,68,0.00,,,0.00,,2013-06-01 01:52:00,
2013-05-31 22:01:00,69.0,60.0,29.69,West,273,1.0,4.0,73,0.00,,,0.00,,2013-06-01 02:01:00,
2013-05-31 22:11:00,67.0,59.0,29.70,West,273,1.0,5.0,75,0.00,,,0.00,,2013-06-01 02:11:00,
2013-05-31 22:21:00,67.0,59.0,29.70,West,273,1.0,5.0,75,0.00,,,0.00,,2013-06-01 02:21:00,
2013-05-31 22:32:00,67.0,58.0,29.72,West,273,2.0,4.0,74,0.00,,,0.00,,2013-06-01 02:32:00,
2013-05-31 22:42:00,67.0,57.0,29.73,SW,217,0.0,4.0,71,0.00,,,0.00,,2013-06-01 02:42:00,
2013-05-31 22:52:00,67.0,57.0,29.73,SW,217,0.0,4.0,71,0.00,,,0.00,,2013-06-01 02:52:00,
2013-05-31 23:01:00,64.0,57.0,29.75,SW,217,0.0,1.0,77,0.00,,,0.00,,2013-06-01 03:01:00,
2013-05-31 23:11:00,62.0,57.0,29.77,NW,317,0.0,0.0,84,0.00,,,0.00,,2013-06-01 03:11:00,
2013-05-31 23:21:00,62.0,57.0,29.77,NW,317,0.0,0.0,84,0.00,,,0.00,,2013-06-01 03:21:00,
2013-05-31 23:33:00,62.0,57.0,29.77,NW,317,0.0,2.0,84,0.00,,,0.00,,2013-06-01 03:33:00,
2013-05-31 23:43:00,62.0,56.0,29.78,NW,317,0.0,2.0,80,0.00,,,0.00,,2013-06-01 03:43:00,
2013-05-31 23:53:00,62.0,56.0,29.78,NW,317,0.0,2.0,80,0.00,,,0.00,,2013-06-01 03:53:00,